Location: Ferchesar
(52.6477°N, 12.4298°E)
Time: 04:29:29
(UTC+01:00)

Explorer 7 - Pass Details

Date: 10 December 2021
Orbit: 483 x 674 km, 50.3° (Epoch: 21 January)

Event Time Altitude Azimuth Distance (km) Brightness Sun altitude
Rises 03:18:14 0° 209° (SSW) 2,914 - -42.7°
Reaches altitude 10° 03:21:03 10° 193° (SSW) 1,975 - -42.3°
Maximum altitude 03:24:23 20° 145° (SE) 1,377 - -41.8°
Drops below altitude 10° 03:27:36 10° 97° (E) 1,892 - -41.3°
Exits shadow 03:28:40 - 89° (E) 2,214 10.6 -41.2°
Sets 03:30:14 0° 81° (E) 2,753 11.2 -40.9°
